When you browse on this site, cookies collect data to enhance your experience and personalize the content and advertising you see.
Visit our Privacy Policy to learn more. By continuing to use the site, you agree to this use of cookies and data.
  • In Hungary
  • List of Countries
  • For 7 days
  • Water Temperature
  • Weather Map
  • News
  • Weather Widgets
  • user-avatar
    Login

    Hourly Weather Dlugobor

    Today, 21 August, Wednesday

    Time Temperature Precipitation Wind Pressure Humidity
    00:00 +18°C° 0 mm 3 mps 759 mmHg 70%
    01:00 +18°C° 0 mm 3 mps 758 mmHg 69%
    02:00 +17°C° 0.7 mm 2 mps 758 mmHg 75%
    03:00 +17°C° 0.7 mm 2 mps 759 mmHg 80%
    04:00 +16°C° 0.7 mm 1 mps 759 mmHg 86%
    05:00 +15°C° 2.2 mm 1 mps 759 mmHg 89%
    06:00 +15°C° 2.2 mm 2 mps 759 mmHg 92%
    07:00 +15°C° 2.2 mm 2 mps 759 mmHg 94%
    08:00 +15°C° 0.7 mm 2 mps 759 mmHg 94%
    09:00 +15°C° 0.7 mm 2 mps 759 mmHg 93%
    10:00 +15°C° 0.7 mm 2 mps 760 mmHg 93%
    11:00 +16°C° 0.1 mm 2 mps 760 mmHg 87%
    12:00 +17°C° 0.1 mm 2 mps 760 mmHg 81%
    13:00 +18°C° 0.1 mm 2 mps 761 mmHg 75%
    14:00 +19°C° 0.1 mm 2 mps 761 mmHg 73%
    15:00 +19°C° 0.1 mm 2 mps 761 mmHg 70%
    16:00 +19°C° 0.1 mm 2 mps 761 mmHg 68%
    17:00 +18°C° 0.1 mm 2 mps 761 mmHg 74%
    18:00 +18°C° 0.1 mm 1 mps 761 mmHg 80%
    19:00 +16°C° 0.1 mm 1 mps 761 mmHg 86%
    20:00 +15°C° 0 mm 1 mps 761 mmHg 87%
    21:00 +15°C° 0 mm 2 mps 761 mmHg 88%
    22:00 +14°C° 0 mm 2 mps 762 mmHg 89%
    23:00 +14°C° 0 mm 2 mps 762 mmHg 89%

    Tomorrow, 22 August, Thursday

    Time Temperature Precipitation Wind Pressure Humidity
    00:00 +14°C° 0 mm 2 mps 762 mmHg 89%
    01:00 +13°C° 0 mm 2 mps 762 mmHg 90%
    02:00 +13°C° 0 mm 2 mps 762 mmHg 90%
    03:00 +13°C° 0 mm 2 mps 762 mmHg 90%
    04:00 +12°C° 0 mm 2 mps 762 mmHg 90%
    05:00 +14°C° 0 mm 2 mps 762 mmHg 87%
    06:00 +15°C° 0 mm 2 mps 763 mmHg 84%
    07:00 +16°C° 0 mm 2 mps 763 mmHg 81%
    08:00 +17°C° 0 mm 2 mps 763 mmHg 76%
    09:00 +18°C° 0 mm 2 mps 763 mmHg 70%
    10:00 +20°C° 0 mm 2 mps 763 mmHg 64%
    11:00 +20°C° 0 mm 2 mps 763 mmHg 61%
    12:00 +21°C° 0 mm 2 mps 763 mmHg 57%
    13:00 +23°C° 0 mm 2 mps 763 mmHg 54%
    14:00 +23°C° 0 mm 1 mps 763 mmHg 53%
    15:00 +23°C° 0 mm 1 mps 763 mmHg 53%
    16:00 +23°C° 0 mm 1 mps 762 mmHg 52%
    17:00 +21°C° 0 mm 1 mps 762 mmHg 58%
    18:00 +19°C° 0 mm 2 mps 762 mmHg 64%
    19:00 +17°C° 0 mm 2 mps 762 mmHg 69%
    20:00 +17°C° 0 mm 3 mps 762 mmHg 73%
    21:00 +16°C° 0 mm 3 mps 763 mmHg 76%
    22:00 +14°C° 0 mm 3 mps 763 mmHg 79%
    23:00 +14°C° 0 mm 3 mps 763 mmHg 79%

    Day after tomorrow, 23 August, Friday

    Time Temperature Precipitation Wind Pressure Humidity
    00:00 +14°C° 0 mm 3 mps 763 mmHg 80%
    01:00 +14°C° 0 mm 3 mps 763 mmHg 80%
    02:00 +13°C° 0 mm 3 mps 763 mmHg 81%
    03:00 +13°C° 0 mm 3 mps 763 mmHg 81%
    04:00 +13°C° 0 mm 3 mps 762 mmHg 82%
    05:00 +14°C° 0 mm 3 mps 763 mmHg 79%
    06:00 +16°C° 0 mm 3 mps 763 mmHg 77%
    07:00 +18°C° 0 mm 3 mps 763 mmHg 74%
    08:00 +19°C° 0 mm 3 mps 763 mmHg 68%
    09:00 +21°C° 0 mm 3 mps 763 mmHg 63%
    10:00 +24°C° 0 mm 3 mps 763 mmHg 58%
    11:00 +24°C° 0 mm 3 mps 763 mmHg 55%
    12:00 +24°C° 0 mm 2 mps 763 mmHg 52%
    13:00 +25°C° 0 mm 2 mps 763 mmHg 49%
    14:00 +25°C° 0 mm 1 mps 762 mmHg 49%
    15:00 +25°C° 0 mm 1 mps 762 mmHg 49%
    16:00 +25°C° 0 mm 1 mps 762 mmHg 49%
    17:00 +23°C° 0 mm 1 mps 762 mmHg 54%
    18:00 +22°C° 0 mm 1 mps 762 mmHg 59%
    19:00 +19°C° 0 mm 2 mps 762 mmHg 64%
    20:00 +18°C° 0 mm 2 mps 762 mmHg 66%
    21:00 +17°C° 0 mm 2 mps 762 mmHg 68%
    22:00 +17°C° 0 mm 3 mps 762 mmHg 70%
    23:00 +16°C° 0 mm 3 mps 762 mmHg 70%

    24 August, Saturday

    Time Temperature Precipitation Wind Pressure Humidity
    00:00 +16°C° 0 mm 3 mps 762 mmHg 70%
    01:00 +16°C° 0 mm 3 mps 762 mmHg 71%
    02:00 +15°C° 0 mm 2 mps 761 mmHg 72%
    03:00 +15°C° 0 mm 2 mps 761 mmHg 73%
    04:00 +14°C° 0 mm 2 mps 761 mmHg 74%
    05:00 +16°C° 0 mm 2 mps 761 mmHg 72%
    06:00 +17°C° 0 mm 2 mps 761 mmHg 70%
    07:00 +18°C° 0 mm 2 mps 761 mmHg 68%
    08:00 +20°C° 0 mm 2 mps 761 mmHg 63%
    09:00 +21°C° 0 mm 2 mps 761 mmHg 57%
    10:00 +24°C° 0 mm 1 mps 761 mmHg 52%
    11:00 +25°C° 0 mm 1 mps 761 mmHg 49%
    12:00 +25°C° 0 mm 1 mps 761 mmHg 46%
    13:00 +26°C° 0 mm 1 mps 761 mmHg 43%
    14:00 +26°C° 0 mm 1 mps 760 mmHg 44%
    15:00 +26°C° 0 mm 1 mps 760 mmHg 45%
    16:00 +26°C° 0 mm 1 mps 760 mmHg 46%
    17:00 +24°C° 0 mm 2 mps 760 mmHg 54%
    18:00 +21°C° 0 mm 2 mps 760 mmHg 61%
    19:00 +19°C° 0 mm 2 mps 759 mmHg 69%
    20:00 +18°C° 0 mm 2 mps 760 mmHg 70%
    21:00 +17°C° 0 mm 2 mps 760 mmHg 71%
    22:00 +17°C° 0 mm 2 mps 760 mmHg 73%
    23:00 +16°C° 0 mm 2 mps 760 mmHg 73%

    25 August, Sunday

    Time Temperature Precipitation Wind Pressure Humidity
    00:00 +16°C° 0 mm 2 mps 760 mmHg 74%
    01:00 +16°C° 0 mm 2 mps 760 mmHg 74%
    02:00 +15°C° 0 mm 2 mps 760 mmHg 75%
    03:00 +15°C° 0 mm 2 mps 760 mmHg 75%
    04:00 +15°C° 0 mm 2 mps 759 mmHg 76%
    05:00 +16°C° 0 mm 2 mps 760 mmHg 74%
    06:00 +17°C° 0 mm 2 mps 760 mmHg 72%
    07:00 +18°C° 0 mm 3 mps 760 mmHg 70%
    08:00 +20°C° 0 mm 3 mps 760 mmHg 65%
    09:00 +22°C° 0 mm 3 mps 760 mmHg 60%
    10:00 +23°C° 0 mm 4 mps 760 mmHg 55%
    11:00 +25°C° 0 mm 4 mps 760 mmHg 53%
    12:00 +26°C° 0 mm 4 mps 760 mmHg 52%
    13:00 +26°C° 0 mm 4 mps 760 mmHg 50%
    14:00 +26°C° 0 mm 4 mps 759 mmHg 51%
    15:00 +26°C° 0 mm 4 mps 759 mmHg 52%
    16:00 +26°C° 0 mm 4 mps 759 mmHg 53%
    17:00 +23°C° 0 mm 4 mps 759 mmHg 60%
    18:00 +21°C° 0 mm 4 mps 759 mmHg 67%
    19:00 +19°C° 0 mm 4 mps 759 mmHg 74%
    20:00 +19°C° 0 mm 4 mps 759 mmHg 75%
    21:00 +18°C° 0 mm 4 mps 759 mmHg 77%
    22:00 +17°C° 0 mm 4 mps 759 mmHg 78%
    23:00 +17°C° 0 mm 4 mps 759 mmHg 78%

    26 August, Monday

    Time Temperature Precipitation Wind Pressure Humidity
    00:00 +15°C° 0 mm 4 mps 759 mmHg 78%
    01:00 +15°C° 0 mm 4 mps 759 mmHg 79%
    02:00 +15°C° 0 mm 4 mps 759 mmHg 78%
    03:00 +15°C° 0 mm 4 mps 758 mmHg 77%
    04:00 +15°C° 0 mm 4 mps 758 mmHg 77%
    05:00 +17°C° 0 mm 4 mps 758 mmHg 75%
    06:00 +18°C° 0 mm 4 mps 758 mmHg 74%
    07:00 +18°C° 0 mm 4 mps 758 mmHg 72%
    08:00 +20°C° 0 mm 4 mps 758 mmHg 70%
    09:00 +21°C° 0 mm 4 mps 758 mmHg 68%
    10:00 +23°C° 0 mm 4 mps 758 mmHg 65%
    11:00 +25°C° 0 mm 4 mps 758 mmHg 63%
    12:00 +27°C° 0 mm 4 mps 757 mmHg 60%
    13:00 +28°C° 0 mm 4 mps 757 mmHg 57%
    14:00 +28°C° 0 mm 4 mps 757 mmHg 59%
    15:00 +27°C° 0 mm 3 mps 756 mmHg 61%
    16:00 +27°C° 0 mm 3 mps 756 mmHg 63%
    17:00 +26°C° 0 mm 3 mps 756 mmHg 67%
    18:00 +25°C° 0 mm 3 mps 756 mmHg 71%
    19:00 +24°C° 0 mm 3 mps 756 mmHg 74%
    20:00 +22°C° 0 mm 4 mps 756 mmHg 75%
    21:00 +22°C° 0 mm 4 mps 756 mmHg 76%
    22:00 +21°C° 0 mm 4 mps 757 mmHg 77%
    23:00 +21°C° 0 mm 4 mps 756 mmHg 79%
    Show more